EUTELSAT 10B

Last updated on Sun Jun 21 2026 00:03:09 GMT+0000 (Coordinated Universal Time)

1 54259U 22157A 26171.32244802 .00000063 00000+0 00000+0 0 9991 2 54259 0.0633 97.3477 0001310 6.5284 290.7143 1.00266775 13055
UTC large
Height (km)
Speed (km/s)
/
Latitude / Longitude
Inclination (degrees)
Orbital Period (minutes)
Azimuth
Elevation
Range (km)
Doppler Factor

Next 0 passes for location: London (51.5072 / 0.1276)

No passes found over London.
EUTELSAT 10B